[[{"header":{"parameterUnit":"m.s-1","parameterCategory":1,"la1":30.2991,"la2":30.254,"lo1":-89.0895,"lo2":-89.0444,"dy":0.0017,"dx":0.0017,"nx":28,"ny":28,"refTime":"2024-05-31T21:00:00:Z","depth":0,"parameterNumber":2,"parameterNumberName":"U-component_of_WINDS"},"data":[0,0,0,0,0,0,0,0,0,0,0,0,0,0,0,0,0,0,0,0,0,0,0,0,0,0,0,0,0,0,0,0,0,0,0,0,0,0,0,0,0,0,0,0,0,0,0,0,0,0,0,0,0,0,0,0,0,0,2.0738,2.0738,0,2.0777,2.0777,2.0778,2.0779,2.0778,2.0778,2.0777,2.0818,2.0819,2.082,0,0,0,0,0,0,0,0,0,0,0,0,0,2.0665,2.0667,2.0738,2.0738,2.0739,2.0777,2.0777,2.0778,2.0779,2.0778,2.0777,2.0777,2.0817,2.0819,2.0821,0,0,0,0,0,0,0,0,0,0,0,0,0,2.07,2.0667,2.0738,2.0744,2.0745,2.0776,2.0777,2.0778,2.0779,2.0778,2.0777,2.0777,2.0816,2.0819,2.0821,2.0849,0,0,2.0828,2.0829,0,0,0,0,0,0,0,0,2.0698,2.0702,2.0743,2.0744,2.0745,2.0772,2.0766,2.0802,2.0779,2.0766,2.0777,2.0776,2.0803,2.0806,2.0815,2.0851,2.0853,2.0828,2.0829,2.083,2.0831,0,0,0,0,0,0,0,2.0695,2.0701,2.0753,2.0743,2.0744,2.0745,2.0749,2.0773,2.0788,2.0767,2.0767,2.0772,2.0803,2.0813,2.0816,2.0853,2.0828,2.083,2.0831,2.0832,2.0915,2.0916,0,0,0,0,0,0,2.0692,2.0699,2.0752,2.0754,2.0719,2.0747,2.0751,2.0764,2.0788,2.0791,2.0772,2.0772,2.0809,2.0813,2.0818,2.0853,2.083,2.0833,2.0834,2.0915,2.0916,2.0917,0,0,0,0,0,0,2.069,2.0697,2.075,2.0727,2.0734,2.0749,2.0763,2.0765,2.0775,2.0792,2.0794,2.0779,2.0809,2.0814,2.0841,2.0854,2.0834,2.0836,2.0914,2.0915,2.0916,2.0923,0,0,0,0,0,0,2.0688,2.0696,2.0707,2.0727,2.0735,2.0773,2.0764,2.0766,2.0778,2.0778,2.0799,2.0802,2.0809,2.0838,2.0844,2.0857,2.0837,2.0913,2.0914,2.0916,2.0922,2.0924,2.0927,0,0,0,0,0,2.0686,2.0707,2.0707,2.0714,2.0749,2.0774,2.0779,2.0786,2.0779,2.0791,2.0802,2.0801,2.0852,2.0841,2.0847,2.0861,2.0912,2.0914,2.0916,2.0921,2.0924,2.0927,0,0,0,0,0,0,2.0688,2.071,2.071,2.0739,2.0755,2.0774,2.0788,2.0789,2.0807,2.0806,2.0815,2.082,2.0847,2.0857,2.0844,2.089,2.0881,2.0884,2.0883,2.0886,2.0888,2.0886,2.0839,0,0,0,0,0,2.0692,2.0711,2.0729,2.0753,2.076,2.0773,2.0784,2.0789,2.0806,2.0812,2.0825,2.0842,2.0862,2.0874,2.0893,2.0923,2.0928,2.0936,2.0939,2.0941,2.0943,2.096,2.0964,2.0923,2.0923,2.0923,0,0,2.07,2.0714,2.0726,2.0753,2.0766,2.0786,2.0779,2.0799,2.0814,2.0816,2.0842,2.0852,2.0871,2.09,2.0913,2.0909,2.0956,2.0943,2.0944,2.0946,2.0963,2.0967,2.097,2.0924,2.0924,2.0924,0,0,2.0725,2.0738,2.0759,2.0772,2.0791,2.08,2.0805,2.0824,2.0831,2.0858,2.0859,2.0877,2.0911,2.0924,2.0936,2.0966,2.0967,2.0972,2.0985,2.1002,2.1005,2.1008,2.1019,2.1023,2.0975,2.0975,2.0975,0,2.0733,2.0762,2.077,2.0791,2.0803,2.0805,2.0827,2.0839,2.0864,2.0873,2.0867,2.091,2.0923,2.0955,2.0963,2.0972,2.0978,2.097,2.1004,2.1007,2.101,2.1021,2.1025,2.0976,2.0976,2.0976,2.0976,0,2.0771,2.0791,2.0806,2.083,2.0844,2.0865,2.0876,2.089,2.0893,2.0902,2.0929,2.0945,2.0968,2.0976,2.0979,2.1008,2.1005,2.1002,2.0993,2.1014,2.1025,2.1029,2.0977,2.0976,2.0976,2.0976,0,0,2.0798,2.0826,2.0832,2.0843,2.0865,2.0881,2.0902,2.0924,2.0935,2.0952,2.0971,2.1,2.0997,2.101,2.1015,2.1029,2.1053,2.1024,2.1025,2.1029,2.1087,2.1089,2.1094,2.1054,2.1054,2.1055,2.1085,0,2.0826,2.0864,2.0872,2.0905,2.0924,2.0927,2.0946,2.0961,2.0971,2.0988,2.0999,2.1019,2.1013,2.1021,2.1036,2.1047,2.1065,2.1045,2.1071,2.1072,2.1066,2.1099,2.1102,2.113,2.109,2.109,2.1091,0,2.0863,2.0881,2.0916,2.0936,2.0944,2.0961,2.0982,2.0999,2.1017,2.1022,2.1037,2.1041,2.1064,2.1053,2.1086,2.1072,2.1083,2.109,2.1092,2.1094,2.1083,2.1103,2.1139,2.1143,2.1097,2.1097,2.1096,0,2.088,2.0913,2.0938,2.0948,2.0971,2.0983,2.0993,2.1011,2.1023,2.1042,2.105,2.1071,2.1082,2.1099,2.1108,2.11,2.114,2.113,2.1145,2.1145,2.1154,2.1153,2.1192,2.1161,2.1161,2.1161,2.1161,0,2.091,2.0931,2.0946,2.0962,2.0986,2.0995,2.1019,2.1029,2.1045,2.1063,2.1066,2.1083,2.1094,2.1113,2.1121,2.1146,2.1151,2.1157,2.1159,2.1157,2.1156,2.1164,2.1162,2.1162,2.1162,2.1161,2.1161,0,2.0933,2.0943,2.0971,2.0991,2.0997,2.1014,2.1031,2.1047,2.1056,2.1079,2.1085,2.1099,2.1121,2.1132,2.116,2.1165,2.1194,2.1195,2.1188,2.1189,2.1203,2.1202,2.1249,2.1255,2.122,2.122,2.1221,0,2.0951,2.0968,2.099,2.1002,2.1012,2.1032,2.1045,2.1055,2.1068,2.109,2.1103,2.1125,2.1144,2.1179,2.1192,2.1214,2.1215,2.123,2.1218,2.1215,2.1215,2.1214,2.1216,2.1232,2.1232,2.1232,2.1233,0,2.0983,2.0987,2.1006,2.1027,2.1042,2.1059,2.1076,2.1086,2.1098,2.1113,2.1135,2.115,2.1178,2.12,2.1222,2.1233,2.1235,2.1236,2.1241,2.1239,2.1234,2.1237,2.1194,2.1235,2.1235,2.1235,2.1234,2.1234,2.1004,2.1019,2.1037,2.1058,2.1071,2.1087,2.1102,2.1114,2.1132,2.1156,2.1161,2.1185,2.1203,2.1233,2.1244,2.1264,2.126,2.1267,2.1269,2.127,2.1271,2.1231,2.1268,2.1268,2.1268,2.1268,2.1268,0,2.1036,2.1047,2.1066,2.109,2.1106,2.1106,2.1125,2.1139,2.116,2.1176,2.1194,2.122,2.1242,2.1257,2.1279,2.1292,2.1293,2.1297,2.1296,2.1299,2.1273,2.1266,2.1296,2.1296,2.1296,2.1296,2.1296,2.1296,2.1054,2.108,2.1087,2.1119,2.1131,2.1154,2.1165,2.1179,2.1192,2.1221,2.1239,2.1249,2.1265,2.1289,2.1309,2.1313,2.1321,2.1325,2.1329,2.1304,2.1301,2.1298,2.1292,2.1326,2.1326,2.1353,2.1354,2.1354]},{"header":{"parameterUnit":"m.s-1","parameterCategory":1,"la1":30.2991,"la2":30.254,"lo1":-89.0895,"lo2":-89.0444,"dy":0.0017,"dx":0.0017,"nx":28,"ny":28,"refTime":"2024-05-31T21:00:00:Z","depth":0,"parameterNumber":3,"parameterNumberName":"V-component_of_WINDS"},"data":[0,0,0,0,0,0,0,0,0,0,0,0,0,0,0,0,0,0,0,0,0,0,0,0,0,0,0,0,0,0,0,0,0,0,0,0,0,0,0,0,0,0,0,0,0,0,0,0,0,0,0,0,0,0,0,0,0,0,5.1677,5.1678,0,5.1796,5.1798,5.1799,5.185,5.185,5.1849,5.1849,5.1965,5.1968,5.1972,0,0,0,0,0,0,0,0,0,0,0,0,0,5.1487,5.149,5.1677,5.1679,5.168,5.1796,5.1798,5.1799,5.185,5.185,5.1849,5.1849,5.1964,5.1968,5.1972,0,0,0,0,0,0,0,0,0,0,0,0,0,5.1584,5.1491,5.1677,5.1719,5.1724,5.1796,5.1798,5.18,5.185,5.1849,5.1849,5.1849,5.1963,5.1968,5.1972,5.2008,0,0,5.1987,5.1989,0,0,0,0,0,0,0,0,5.1579,5.1591,5.1712,5.1717,5.1722,5.1808,5.1773,5.187,5.185,5.1802,5.1849,5.1849,5.1913,5.1922,5.1944,5.2014,5.2019,5.1988,5.1991,5.1993,5.1994,0,0,0,0,0,0,0,5.1572,5.1586,5.1724,5.1713,5.172,5.1731,5.1744,5.1792,5.1857,5.1806,5.181,5.1824,5.1915,5.194,5.1948,5.2021,5.1988,5.1992,5.1995,5.1997,5.2126,5.2127,0,0,0,0,0,0,5.1559,5.158,5.172,5.1728,5.1648,5.1734,5.1749,5.1781,5.1857,5.1868,5.1824,5.1826,5.1931,5.1942,5.1952,5.2,5.1993,5.1997,5.2,5.2126,5.2126,5.2127,0,0,0,0,0,0,5.1555,5.1571,5.1715,5.1655,5.1674,5.1738,5.1773,5.1783,5.1808,5.1871,5.1882,5.1837,5.1932,5.1945,5.1995,5.2005,5.2,5.2004,5.2125,5.2126,5.2126,5.2096,0,0,0,0,0,0,5.1549,5.1569,5.1585,5.1655,5.1677,5.1758,5.1773,5.1786,5.1817,5.182,5.1886,5.1896,5.1932,5.1987,5.1999,5.2011,5.2008,5.2124,5.2125,5.2126,5.2097,5.2096,5.2095,0,0,0,0,0,5.1542,5.157,5.1585,5.1602,5.1699,5.1758,5.1771,5.1814,5.1817,5.1833,5.1873,5.1894,5.2001,5.1992,5.2006,5.202,5.2124,5.2125,5.2126,5.2097,5.2096,5.2095,0,0,0,0,0,0,5.1497,5.158,5.1598,5.165,5.1697,5.1767,5.1788,5.1811,5.1856,5.1858,5.1906,5.1921,5.1966,5.1998,5.1985,5.2059,5.2064,5.2068,5.2037,5.2037,5.2036,5.2028,5.2012,0,0,0,0,0,5.1493,5.1537,5.1606,5.1645,5.1668,5.1724,5.1751,5.178,5.183,5.185,5.1894,5.194,5.1984,5.2012,5.2056,5.2101,5.2116,5.2117,5.2116,5.2116,5.2119,5.2145,5.2147,5.213,5.213,5.213,0,0,5.1486,5.1537,5.1561,5.1638,5.1678,5.172,5.174,5.1784,5.1815,5.1856,5.1906,5.194,5.1994,5.2042,5.2065,5.207,5.2126,5.2117,5.2116,5.212,5.2147,5.2148,5.2149,5.2131,5.2131,5.2131,0,0,5.1494,5.1537,5.1575,5.1615,5.1676,5.1713,5.1722,5.1789,5.1813,5.1865,5.1896,5.1933,5.2008,5.2046,5.2075,5.2098,5.2119,5.211,5.2107,5.2132,5.2134,5.2135,5.2144,5.2146,5.2113,5.2113,5.2113,0,5.1477,5.1544,5.1591,5.1634,5.1667,5.1707,5.1745,5.178,5.1851,5.1872,5.1876,5.1972,5.2011,5.2069,5.2075,5.2096,5.2108,5.2104,5.213,5.2132,5.2134,5.2143,5.2146,5.2112,5.2112,5.2112,5.2112,0,5.152,5.1566,5.1589,5.1659,5.1694,5.1734,5.1785,5.1815,5.184,5.1876,5.1928,5.1977,5.2032,5.2047,5.2071,5.2108,5.2109,5.2121,5.2128,5.2133,5.2143,5.2146,5.211,5.211,5.2111,5.2111,0,0,5.1504,5.1601,5.1608,5.1641,5.1711,5.1747,5.1787,5.1844,5.1868,5.1915,5.195,5.2013,5.2025,5.2058,5.2086,5.2109,5.2124,5.2118,5.212,5.2118,5.2168,5.216,5.2163,5.2139,5.2139,5.214,5.2164,0,5.1523,5.1601,5.1644,5.1704,5.1747,5.1785,5.1821,5.1867,5.1901,5.1941,5.1978,5.2022,5.2034,5.2054,5.2078,5.2117,5.2135,5.2116,5.2171,5.2173,5.2158,5.2168,5.2159,5.2179,5.2168,5.2168,5.2169,0,5.1555,5.1605,5.1669,5.1735,5.1755,5.1786,5.1841,5.1879,5.1931,5.1955,5.1992,5.2021,5.2064,5.2067,5.2127,5.2113,5.2138,5.216,5.2162,5.217,5.2172,5.2176,5.2187,5.219,5.2175,5.2174,5.2174,0,5.1538,5.162,5.167,5.1697,5.1774,5.1796,5.1829,5.1881,5.1912,5.1959,5.198,5.203,5.2058,5.2095,5.2137,5.2135,5.2193,5.2199,5.2213,5.2212,5.2224,5.2223,5.224,5.2238,5.2238,5.2238,5.2238,0,5.1555,5.1593,5.1664,5.1694,5.1738,5.1786,5.1827,5.1862,5.1909,5.1945,5.1981,5.2014,5.2066,5.2106,5.2138,5.2183,5.2195,5.2214,5.2223,5.2212,5.221,5.2229,5.2229,5.2239,5.2239,5.2239,5.2238,0,5.1544,5.1593,5.165,5.1719,5.1738,5.1766,5.1825,5.1855,5.1892,5.1938,5.1951,5.2007,5.2056,5.2101,5.2164,5.2186,5.2232,5.2242,5.2215,5.222,5.2232,5.223,5.2263,5.227,5.2262,5.2262,5.2262,0,5.1552,5.1583,5.1657,5.1685,5.1718,5.1763,5.1795,5.1843,5.1875,5.1937,5.196,5.2011,5.2055,5.213,5.2176,5.2225,5.2237,5.2245,5.2244,5.2233,5.2238,5.2236,5.2239,5.2244,5.2244,5.2244,5.2244,0,5.1562,5.1585,5.1632,5.1687,5.1725,5.177,5.1816,5.1836,5.1893,5.1926,5.1978,5.2012,5.2078,5.2129,5.2183,5.2215,5.2238,5.2243,5.2249,5.2239,5.2223,5.2233,5.2214,5.2243,5.2243,5.2243,5.2243,5.2243,5.1562,5.1591,5.1648,5.1698,5.1739,5.1781,5.1813,5.1854,5.1898,5.1958,5.1982,5.2034,5.2085,5.2161,5.2193,5.2233,5.2238,5.2246,5.2249,5.225,5.2249,5.2216,5.2243,5.2243,5.2243,5.2243,5.2243,0,5.1574,5.1613,5.1659,5.1724,5.1763,5.1784,5.1835,5.1867,5.1913,5.1959,5.2002,5.2061,5.211,5.216,5.2211,5.2234,5.2246,5.2246,5.2245,5.2252,5.2241,5.2231,5.2235,5.2235,5.2235,5.2235,5.2235,5.2235,5.1585,5.1636,5.1666,5.1737,5.1774,5.1827,5.1855,5.1894,5.1932,5.1997,5.2039,5.2071,5.2119,5.2174,5.222,5.2233,5.2251,5.2248,5.2264,5.2252,5.2253,5.2253,5.2244,5.2251,5.2251,5.2272,5.2272,5.2272]}]]